Impacts METAR Board INFO
IDs:

KSLC - Salt Lake City Intl, UT, US

Updated at: 1519 UTC 18 Jan 2018
Potential Impact None Slight Moderate High
Time18/03Z 18/04Z 18/05Z 18/06Z 18/07Z 18/08Z 18/09Z 18/10Z 18/11Z 18/12Z 18/13Z 18/14Z 18/15Z
VIS10 10 10 10 10 10 10 10 10 10 10 10 10
CIG230 240 230 230 230 230 220 220 -- -- -- -- 250
CoverBKNBKNBKNBKNBKNBKNBKNBKNSCTSCTSCTSCTBKN
FltCatVFRVFRVFRVFRVFRVFRVFRVFRVFRVFRVFRVFRVFR
WX--------------------------
WDir1501501301301201201901101100170160120
WSpd4 6 6 6 4 5 4 7 4 0 3 6 8
WGst-- -- -- -- -- -- -- -- -- -- -- -- --
Raw hourly METARs
KSLC 180254Z 15004KT 10SM SCT160 BKN230 04/M01 A3035 RMK AO2 SLP276 T00391006 58002
KSLC 180354Z 15006KT 10SM SCT170 BKN240 04/M01 A3033 RMK AO2 SLP277 T00391006
KSLC 180454Z 13006KT 10SM FEW160 BKN230 03/M01 A3033 RMK AO2 SLP273 T00331006
KSLC 180554Z 13006KT 10SM FEW150 BKN230 03/M01 A3032 RMK AO2 SLP266 T00331011 10083 20028 56010
KSLC 180654Z 12004KT 10SM FEW150 BKN230 04/M02 A3031 RMK AO2 SLP257 T00441017 401281006
KSLC 180754Z 12005KT 10SM FEW150 BKN230 03/M02 A3028 RMK AO2 SLP246 T00331017
KSLC 180854Z 19004KT 10SM FEW150 BKN220 03/M02 A3026 RMK AO2 SLP240 T00281022 58015
KSLC 180954Z 11007KT 10SM BKN220 02/M02 A3025 RMK AO2 SLP236 T00221022
KSLC 181054Z 11004KT 10SM SCT200 03/M03 A3023 RMK AO2 SLP231 T00281028
KSLC 181154Z 00000KT 10SM SCT200 03/M03 A3025 RMK AO2 SLP241 T00281028 10050 20022 55003
KSLC 181254Z 17003KT 10SM SCT200 01/M02 A3025 RMK AO2 SLP245 T00061017
KSLC 181354Z 16006KT 10SM SCT200 02/M02 A3024 RMK AO2 SLP241 T00221017
KSLC 181454Z 12008KT 10SM FEW140 SCT200 BKN250 02/M03 A3022 RMK AO2 SLP237 ACSL DSNT NW T00221028 58009